Content
SEND FEEDBACK

Daily
Averages
Monthly
Summary
United States of America

MIDDLETOWN, NEW YORK


Home > North America > United States > New York
Elevation: 700 feet     Latitude: 41 27N     Longitude: 074 27W

WEATHER
 
SELECT A DAY
Number of Records: 184,923;   Date Range: 12/17/97 - 10/20/14
 
SHARE

PRINT THIS DATA

[ ← Previous Day ]
WEATHER ALMANAC - AUGUST 15, 2014
[ Next Day → ]
[ °C ]   °F
Weather ElementAverageHighLow
Temperature59.1 °F70 °F (3:54 pm)50 °F (10:54 pm)
Dewpoint51.4 °F55 °F (7:54 am)48 °F (8:54 am)
Humidity78.3 %100 % (4:16 am)49 % (11:54 am)
Barometer29.93 in29.98 in (2:54 pm)29.89 in (1:54 pm)
Wind Speed4.5 mph12.7 mph (12:54 pm)
Wind Gust19.6 mph (10:34 pm)
Weather ElementAverage
Visibility7.9 mi
Wind DirectionSSE (152.9 °)

Weather ElementTotal
Precipitation---
Heating Degree Days5 (Base 65)
Growing Degree Days10 (Base 50)
Averaged from 31 records on August 15, 2014
WEATHER CONDITIONS BREAKOUT
WIND DIRECTION BREAKOUT
WEATHER BY HOUR - AUGUST 15, 2014
[ °C ]   °F
Local TimeTemperatureDewpointHumidityBarometerVisibilityWind DirectionWind SpeedGust SpeedPrecipitationEventsConditions
12:19 AM55.9 °F55.0 °F97 %29.91 in4.0 miSW (220°)3.5 mphClear
12:38 AM55.0 °F55.0 °F100 %29.90 in1.2 miCalmClear
12:40 AM55.0 °F54.0 °F96 %29.91 in0.8 miCalmMist
12:54 AM55.0 °F54.0 °F96 %29.90 in1.0 miCalmMist
12:57 AM55.9 °F55.0 °F97 %29.90 in2.0 miCalmPartly Cloudy
1:12 AM55.0 °F54.0 °F96 %29.90 in0.5 miSW (220°)3.5 mphFogFog
1:17 AM55.0 °F54.0 °F96 %29.90 in1.2 miSSW (200°)4.6 mphScattered Clouds
1:25 AM54.0 °F53.1 °F97 %29.90 in3.0 miSW (220°)6.9 mphPartly Cloudy
1:54 AM53.1 °F52.0 °F96 %29.90 in10.0 miCalmClear
2:54 AM53.1 °F51.1 °F93 %29.89 in10.0 miCalmClear
3:54 AM51.1 °F48.9 °F92 %29.90 in10.0 miVariable3.5 mphClear
4:54 AM52.0 °F50.0 °F93 %29.89 in10.0 miSSE (150°)3.5 mphClear
5:54 AM50.0 °F48.9 °F96 %29.91 in10.0 miWSW (240°)3.5 mphClear
6:54 AM51.1 °F50.0 °F96 %29.93 in10.0 miCalmClear
7:54 AM54.0 °F52.0 °F93 %29.93 in10.0 miSSW (210°)6.9 mphClear
8:54 AM57.9 °F53.1 °F84 %29.93 in10.0 miSSW (210°)6.9 mphOvercast
9:54 AM63.0 °F52.0 °F67 %29.94 in10.0 miWest (280°)8.1 mphOvercast
10:54 AM64.9 °F48.9 °F56 %29.95 in10.0 miWNW (300°)10.4 mph
11:54 AM66.0 °F48.9 °F54 %29.94 in10.0 miNNW (330°)9.2 mphOvercast
12:54 PM66.9 °F50.0 °F54 %29.94 in10.0 miWNW (290°)10.4 mph18.4 mphOvercast
1:54 PM64.9 °F48.9 °F56 %29.94 in10.0 miWest (270°)9.2 mphOvercast
2:54 PM69.1 °F50.0 °F51 %29.94 in10.0 miWest (260°)12.7 mph19.6 mphOvercast
3:54 PM68.0 °F48.0 °F49 %29.94 in10.0 miWNW (290°)10.4 mphOvercast
4:54 PM70.0 °F50.0 °F49 %29.94 in10.0 miVariable5.8 mphOvercast
5:54 PM66.9 °F48.9 °F52 %29.94 in10.0 miWest (280°)5.8 mphOvercast
6:54 PM66.9 °F50.0 °F54 %29.94 in10.0 miWSW (250°)5.8 mphOvercast
7:54 PM64.0 °F50.0 °F60 %29.95 in10.0 miSW (230°)4.6 mphOvercast
8:54 PM64.0 °F50.0 °F60 %29.96 in10.0 miWNW (290°)3.5 mphOvercast
9:54 PM61.0 °F53.1 °F75 %29.97 in10.0 miCalmOvercast
10:54 PM57.0 °F52.0 °F83 %29.98 in10.0 miCalmScattered Clouds
11:54 PM55.9 °F53.1 °F90 %29.98 in10.0 miCalmOvercast
Hourly data recorded from KMGJ, located miles away from Middletown, New York







STORIES FROM OUR PARTNERS